TIME,DELAY(SENSOR),PRES,OXYGEN,RAWTEMP,T(OPTODE),TCPHASE,FLUOR,BETA(BETA700),BETA(BETA412),BETA(BETA440),CDOM,C(CSC),ED(ED412.40),ED(ED444.00),ED(ED489.70),ED(ED554.30),LU(LU411.80),LU(LU443.40),LU(LU489.60),LU(LU554.10),COMP,TILTX,TILTY,CHECK
1379390528,5812,850.7800292968750000,45.7707786560058600,656.6638183593750000,4.7377429008483890,54.1011695861816400,52,100,84,78,78,15289,2147751414,2147426624,2148012754,2147873709,2147636480,2147057234,2148257060,2147199085,2656,4,13,26011
1379394124,5807,926.9699707031250000,48.2341499328613300,665.5446777343750000,4.4452610015869140,53.8597908020019500,53,98,82,78,79,15287,2147753654,2147423296,2148014939,2147873874,2147640694,2147054427,2148260781,2147195931,1114,4,13,46953
1379397724,5809,936.3699951171875000,49.1084403991699200,667.1403808593750000,4.3926138877868650,53.7551803588867200,52,99,84,78,79,15289,2147752137,2147424896,2148013385,2147873289,2147639040,2147059547,2148262080,2147196187,3526,4,13,4681
1379401324,5810,960.0900268554688000,50.3918685913085940,671.5344848632812000,4.2474918365478520,53.6353416442871100,52,115,86,79,79,15290,2147757595,2147429293,2148014180,2147875346,2147640338,2147056758,2148263168,2147196891,840,4,13,47234
1379404924,5807,968.0100097656250000,50.6282691955566400,674.0861816406250000,4.1631197929382320,53.6346397399902340,53,98,85,78,79,15287,2147757531,2147425581,2148011382,2147873718,2147638921,2147057289,2148262729,2147200658,509,4,13,30784
1379408524,5811,968.9199829101562000,50.1174888610839840,673.8621215820312000,4.1705341339111330,53.7005882263183600,52,98,83,78,79,15289,2147753600,2147426971,2148016521,2147872585,2147640256,2147054006,2148267236,2147197467,3505,4,13,10423
1379412124,5810,991.5100097656250000,51.2852287292480500,677.2272949218750000,4.0591549873352050,53.5874481201171900,52,98,83,78,79,15291,2147755986,2147426523,2148012178,2147872246,2147638043,2147056713,2148263040,2147198116,2563,4,13,17239
1379415724,5807,990.7800292968750000,51.5833702087402340,678.1618041992188000,4.0282039642333980,53.5593795776367200,53,100,89,78,78,15290,2147752027,2147423387,2148013961,2147874523,2147641581,2147055689,2148265362,2147197193,212,4,13,22684
1379419324,5810,1003.0300292968750000,51.7235794067382800,677.8643798828125000,4.0380549430847170,53.5378417968750000,53,97,87,78,79,15289,2147755931,2147425270,2148013046,2147874276,2147641910,2147056722,2148262180,2147199012,3466,4,13,32473
1379422924,5808,1003.2100219726562000,51.3443298339843750,677.0308227539062000,4.0656599998474120,53.5741500854492200,51,96,84,80,79,15290,2147757120,2147427556,2148013376,2147875648,2147643154,2147056384,2148263844,2147196937,3037,4,13,52756
1379426524,5810,1004.1599731445312000,51.0765495300293000,676.7235717773438000,4.0758361816406250,53.6071891784668000,52,97,82,78,78,15290,2147754724,2147425837,2148011958,2147873426,2147641600,2147056009,2148267565,2147196306,3370,4,13,26980
1379430124,5809,1010.5499877929688000,51.0121498107910160,675.9592285156250000,4.1011390686035160,53.6082382202148440,53,99,87,79,79,15289,2147753069,2147425398,2148014601,2147872521,2147640713,2147055853,2148268480,2147195410,3548,4,13,29521
1379433724,5809,1010.2999877929688000,50.9051208496093750,676.0982055664062000,4.0965390205383300,53.6220016479492200,52,98,83,77,79,15290,2147753234,2147424283,2148015030,2147875446,2147641078,2147057344,2148265856,2147198208,3482,4,13,57109
1379437324,5809,1016.2199707031250000,50.9448890686035160,675.5610961914062000,4.1143169403076170,53.6085700988769500,52,99,88,80,79,15283,2147756452,2147428800,2148013330,2147877174,2147640384,2147050971,2148270153,2147198070,54,4,13,57920
1379440924,5809,1011.4299926757812000,50.3778991699218750,675.5717163085938000,4.1139659881591800,53.6902618408203100,52,97,85,78,78,15287,2147755318,2147425517,2148012534,2147874477,2147642624,2147060214,2148268242,2147198893,3447,4,13,15957
1379444524,5809,1011.7600097656250000,50.2806015014648440,675.8256835937500000,4.1055579185485840,53.7079200744628900,52,98,87,78,78,15114,2147753261,2147422518,2148010916,2147873673,2147640649,2147052617,2148262016,2147194450,29,4,13,7330
1379448124,5811,1009.7800292968750000,50.2194900512695300,675.4979858398438000,4.1164040565490720,53.7101287841796900,52,97,88,80,78,15287,2147756013,2147420717,2148015725,2147873563,2147643474,2147058002,2148267364,2147198070,32,4,13,46747
1379451724,5807,1006.4400024414062000,50.3020515441894500,676.6499023437500000,4.0782761573791500,53.7102088928222660,53,98,89,79,79,15287,2147755922,2147425746,2148011355,2147872905,2147639689,2147053805,2148261284,2147199798,3499,4,13,63911
1379455324,5812,1004.5999755859375000,51.0281486511230500,678.1848144531250000,4.0274410247802730,53.6301307678222660,53,98,89,79,79,15287,2147753984,2147425325,2148014336,2147874596,2147640795,2147051446,2148265142,2147199387,25,4,13,33017
1379458924,5808,1007.5700073242188000,51.0388793945312500,677.6472167968750000,4.0452499389648440,53.6254997253418000,53,96,89,79,78,15284,2147754459,2147425325,2148014756,2147876736,2147639405,2147053842,2148264795,2147199908,406,4,13,1644
1379462524,5811,1008.5499877929688000,51.1156501770019500,677.8347778320312000,4.0390357971191410,53.6159210205078100,52,97,82,79,79,15282,2147753810,2147426011,2148013787,2147876406,2147642944,2147054418,2148265353,2147197942,110,4,13,20456
1379466124,5811,1014.9299926757812000,50.9039306640625000,676.9697265625000000,4.0676860809326170,53.6310997009277340,53,98,86,78,79,15282,2147756160,2147425572,2148011392,2147875017,2147637412,2147057124,2148263817,2147199213,3000,4,13,30921
1379469724,5809,1014.2000122070312000,51.0295486450195300,676.1287231445312000,4.0955309867858890,53.6041183471679700,52,97,83,78,79,15282,2147758080,2147428617,2148016530,2147873563,2147638043,2147058678,2148268297,2147197897,294,4,13,58015
1379473324,5810,1010.6199951171875000,50.8292312622070300,676.8884277343750000,4.0703749656677250,53.6463317871093750,52,100,85,78,79,15228,2147757705,2147426550,2148015442,2147876397,2147637961,2147048685,2148266432,2147199433,141,4,13,58654
1379476924,5807,1016.8400268554688000,50.8371086120605500,676.9041137695312000,4.0698599815368650,53.6424903869628900,52,96,85,78,78,15257,2147756169,2147429312,2148015341,2147878180,2147641600,2147051145,2148266825,2147195565,3437,4,13,20846
1379480524,5812,1010.0599975585938000,50.6515197753906250,676.5557250976562000,4.0813941955566410,53.6641502380371100,52,98,85,78,78,15255,2147756032,2147426002,2148017380,2147875584,2147638043,2147049920,2148262427,2147197028,102,4,13,39398
1379484124,5810,1009.3200073242188000,50.4942588806152340,677.1956176757812000,4.0602068901062010,53.6921081542968750,52,96,82,78,78,15259,2147751981,2147426075,2148016365,2147875794,2147640905,2147054308,2148257417,2147198006,3479,4,13,8116
1379487724,5807,1015.1199951171875000,50.7812309265136700,676.8391723632812000,4.0720062255859375,53.6472282409668000,52,96,80,77,80,15258,2147756754,2147426093,2148014336,2147875693,2147640731,2147054592,2148264941,2147196708,3559,3,13,28054
1379491324,5808,1011.2199707031250000,50.7995910644531250,677.0554199218750000,4.0648479461669920,53.6471786499023440,52,98,85,79,78,15258,2147754998,2147424128,2148013796,2147876041,2147638902,2147057618,2148262976,2147199972,290,4,13,14434
1379494924,5810,1012.2299804687500000,50.8514709472656250,677.7813720703125000,4.0408039093017580,53.6542510986328100,52,96,85,78,79,15252,2147757321,2147426752,2148014665,2147873444,2147641481,2147059254,2148266340,2147201097,140,4,13,9088
1379498524,5810,1014.2199707031250000,51.1613883972168000,677.8250732421875000,4.0393562316894530,53.6125984191894500,53,98,88,79,80,15252,2147757540,2147426029,2148016676,2147872768,2147639067,2147050505,2148262281,2147200832,3380,3,13,5757
1379502124,5804,1015.5999755859375000,50.6347198486328100,676.8209838867188000,4.0726089477539060,53.6705589294433600,52,95,86,82,78,15251,2147757101,2147427904,2148015195,2147873188,2147640064,2147050130,2148268013,2147196964,3465,4,13,15956
1379505724,5807,1013.0300292968750000,50.7041206359863300,677.7825927734375000,4.0407638549804690,53.6747093200683600,53,101,86,78,80,15253,2147754724,2147427949,2148014034,2147873856,2147639881,2147053220,2148264438,2147196946,3485,4,13,42728
1379509324,5809,1009.0999755859375000,50.6463508605957000,677.9199829101562000,4.0362110137939450,53.6805801391601560,52,98,85,78,80,15249,2147756973,2147424795,2148014034,2147874587,2147641124,2147059419,2148264000,2147199067,116,4,13,1129
1379512924,5810,1005.2700195312500000,50.9093589782714840,677.8244018554688000,4.0393791198730470,53.6416511535644500,52,98,84,78,80,15251,2147758464,2147424091,2148012141,2147873947,2147642404,2147053494,2148260891,2147198464,3309,4,13,25343
1379516524,5807,1012.9899902343750000,50.6924400329589840,677.9287719726562000,4.0359210968017580,53.6727714538574200,51,97,84,77,78,15247,2147754916,2147425014,2148013037,2147872923,2147639625,2147050240,2148267556,2147201664,3546,4,13,14190
1379520124,5810,1015.9099731445312000,50.4796600341796900,677.2213134765625000,4.0593528747558590,53.6944389343261700,52,98,85,80,77,15251,2147755328,2147427218,2148011456,2147874313,2147640576,2147058761,2148265060,2147198171,365,4,13,16635
1379523724,5810,1021.9600219726562000,50.2495307922363300,676.7814941406250000,4.0739169120788570,53.7226181030273440,52,98,83,79,78,15247,2147753225,2147425472,2148013952,2147873673,2147635840,2147058468,2148264301,2147196745,333,4,13,40639
1379527324,5810,1024.8100585937500000,49.2619895935058600,676.1386718750000000,4.0952000617980960,53.8511009216308600,52,97,83,78,78,15249,2147756150,2147426102,2148015826,2147876781,2147641344,2147056393,2148265252,2147200146,472,4,13,46240
1379530924,5809,1022.5700073242188000,49.5884895324707000,675.9730834960938000,4.1006808280944820,53.8035316467285160,53,97,81,79,79,15247,2147753453,2147426203,2148016594,2147876013,2147639177,2147053504,2148265472,2147196809,272,4,13,28852
1379534156,5809,1015.7999877929688000,50.3226585388183600,676.9777221679688000,4.0674209594726560,53.7128295898437500,52,97,87,79,79,15268,2147753088,2147426340,2148012717,2147870939,2147640713,2147058057,2148258121,2147197568,2920,4,13,2116
